Hourly Weather Roundup
Issued by NWS Central Illinois

Home | Current Version | Previous Version | Text Only | Print | Product List | Glossary On
Versions: 1 2 3 4 5 6 7 8 9 10 11 12 13 14 15 16 17 18 19 20 21 22 23 24 25 26 27 28 29 30 31 32 33 34 35 36 37 38 39 40 41 42 43 44 45 46 47 48 49 50
000
NZUS43 KILX 250610
HWRILX

AREA WEATHER ROUNDUP
NATIONAL WEATHER SERVICE, LINCOLN IL
100 AM CDT SAT MAR 25 2017


CITY           SKY/WX    TMP DP  RH WIND       PRES   REMARKS
BLOOMINGTON    CLOUDY    57  53  86 NE7       29.99F
6HR MIN TEMP:  57; 6HR MAX TEMP:  69; 6HR PCP:  0.04;

CHAMPAIGN      LGT RAIN  63  53  70 S13       29.99F
6HR MIN TEMP:  63; 6HR MAX TEMP:  70; 6HR PCP: TRACE;

DECATUR        LGT RAIN  63  55  75 SE13      29.96F
6HR MIN TEMP:  63; 6HR MAX TEMP:  70; 6HR PCP: TRACE;

EFFINGHAM      CLOUDY    64  55  73 SE9       30.00F
6HR MIN TEMP:  64; 6HR MAX TEMP:  70;

FLORA          PTCLDY    63  55  75 SE9       29.99F
6HR MIN TEMP:  61; 6HR MAX TEMP:  69;

GALESBURG      CLOUDY    55  55  99 E8        29.95F
6HR MIN TEMP:  54; 6HR MAX TEMP:  58; 6HR PCP:  0.23;

JACKSONVILLE   RAIN      57  55  92 NE5       29.92S
6HR MIN TEMP:  57; 6HR MAX TEMP:  64; 6HR PCP:  0.01;

LACON          CLOUDY    49  44  81 E3        30.00F
6HR MIN TEMP:  49; 6HR MAX TEMP:  69;

LAWRENCEVILLE  PTCLDY    62  53  72 SE14      30.03F
6HR MIN TEMP:  58; 6HR MAX TEMP:  68;

LITCHFIELD     CLOUDY    62  56  81 SE12      29.93F
6HR MIN TEMP:  62; 6HR MAX TEMP:  68;

$$


CITY           SKY/WX    TMP DP  RH WIND       PRES   REMARKS
LINCOLN        DRIZZLE   60  58  94 CALM      29.95F
6HR MIN TEMP:  60; 6HR MAX TEMP:  73; 6HR PCP:  0.01;

MACOMB         CLOUDY    55  54  97 NE15      29.95F
6HR MIN TEMP:  55; 6HR MAX TEMP:  58; 6HR PCP:  0.05;

MATTOON        CLOUDY    63  54  72 S8        29.98F
6HR MIN TEMP:  63; 6HR MAX TEMP:  69;

MT CARMEL AP   PTCLDY    62  52  69 SE10      30.02F
6HR MIN TEMP:  57; 6HR MAX TEMP:  69;

OLNEY-NOBLE AP CLOUDY    61  55  82 SE8       30.00F
PARIS          MOCLDY    61  53  76 S10       30.01F
6HR MIN TEMP:  61; 6HR MAX TEMP:  69;

PEORIA         LGT RAIN  58  54  86 NE8       29.99S
6HR MIN TEMP:  58; 6HR MAX TEMP:  68; 6HR PCP:  0.02;

PONTIAC        CLOUDY    49  46  88 N10       30.02R
6HR MIN TEMP:  49; 6HR MAX TEMP:  72;

RANTOUL        CLOUDY    63  56  79 S10       29.99S
6HR MIN TEMP:  61; 6HR MAX TEMP:  71;

SPRINGFIELD    CLOUDY    65  57  75 SE14      29.93F
6HR MIN TEMP:  63; 6HR MAX TEMP:  75; 6HR PCP:  0.01;

TAYLORVILLE    LGT RAIN  63  55  77 SE13      29.95F
$$

...REGIONAL REPORTS...


CITY           SKY/WX    TMP DP  RH WIND       PRES   REMARKS
CHICAGO O`HARE CLOUDY    42  36  79 NE15      30.06R WCI  34
KANKAKEE       CLOUDY    44  40  85 NE10      30.04S
MOLINE         CLOUDY    48  44  86 E16       29.98S FOG
MOUNT STERLING CLOUDY    57  55  92 E13       29.90F
MOUNT VERNON   CLOUDY    66  55  67 SE8       29.97F
PITTSFIELD     LGT RAIN  57  56  97 E8        29.91F
QUINCY         LGT RAIN  57  56  96 NW5       29.91F FOG
ROCKFORD       CLOUDY    41  37  86 NE14      30.09R WCI  33
$$


CITY           SKY/WX    TMP DP  RH WIND       PRES   REMARKS
BURLINGTON     LGT RAIN  55  55 100 NE10      29.93F FOG
CEDAR RAPIDS   LGT RAIN  44  44 100 NE14      29.98F FOG
DES MOINES     DRIZZLE   44  42  93 NE13      29.96F FOG
KIRKSVILLE     CLOUDY    55  54  96 NE8       29.89F
OTTUMWA        LGT RAIN  50  50 100 NE13      29.94S FOG
ST LOUIS       LGT RAIN  64  59  83 SE10      29.90F
$$


CITY           SKY/WX    TMP DP  RH WIND       PRES   REMARKS
TERRE HAUTE    PTCLDY    63  51  65 S8        30.02F
EVANSVILLE     CLOUDY    65  53  65 SE7       30.04F
INDIANAPOLIS   CLOUDY    63  51  65 S9        30.05F
LAFAYETTE      CLOUDY    64  53  67 S7        30.01F
MADISON        CLOUDY    37  33  85 NE14G23   30.11S WCI  28
MILWAUKEE      LGT RAIN  38  34  85 N21G29    30.10S FOG     WCI  28
$$






USA.gov is the U.S. government's official web portal to all federal, state and local government web resources and services.